Flag for Netherlands Weather past 2 weeks in Tilburg, Netherlands

48 °F

Partly cloudy.

Feels Like: 46 °F
Forecast: 47 / 52 °F
Wind: 5 mph from West

Location: Gilze-Rijen

Current Time: Dec 1, 2015 at 5:31:19 AM

Latest Report: Dec 1, 2015 at 4:25 AM

Visibility: 4 mi

Pressure: 30.09 "Hg

Humidity: 94%

Dew point: 46 °F

Location of TilburgLocation

Historic Weather in Tilburg — Graph


Tilburg temperature yesterday

Maximum temperature yesterday: 57 °F (at 10:55 PM)
Minimum temperature yesterday: 45 °F (at 7:55 AM)
Average temperature yesterday: 50 °F

Past Weeks' High & Low Weather Summary

High61 °F (Nov 17, 7:55 PM)100% (Nov 16, 4:59 PM)30.24 "Hg (Nov 16, 4:59 PM)
Low25 °F (Nov 23, 6:25 AM)63% (Nov 18, 1:55 AM)29.36 "Hg (Nov 21, 9:25 AM)
Average45 °F86%29.84 "Hg
* Reported Nov 16 4:55 AM — Dec 1 4:04 AM, Tilburg, Weather by CustomWeather, © 2015

Note: Actual official high and low records may vary slightly from our data, if they occured in-between our weather recording intervals... More about our weather records


Tilburg weather history for previous 24 hours

Time TempWeatherWind HumidityBarometerVisibility
4:04 AM
Tue, Dec 1
48 °FLight rain. Partly cloudy.5 mph94%30.09 "Hg2 mi
3:25 AM48 °FDrizzle. Overcast.6 mph94%30.09 "Hg6 mi
2:55 AM48 °FDrizzle. Overcast.7 mph94%30.07 "HgN/A
1:59 AM50 °FDrizzle. Overcast.13 mph88%30.04 "HgN/A
1:55 AM50 °FLight rain. Partly cloudy.12 mph88%30.04 "HgN/A
12:55 AM52 °FPartly cloudy.13 mph94%30.01 "Hg3 mi
12:25 AM54 °FRain showers. Passing clouds.17 mph94%29.98 "Hg2 mi
11:56 PM
Mon, Nov 30
55 °FDrizzle. Overcast.17 mph88%29.95 "Hg3 mi
11:25 PM55 °FLight rain. Mostly cloudy.20 mph88%29.92 "Hg3 mi
10:55 PM57 °FMostly cloudy.20 mph77%29.92 "HgN/A
10:25 PM55 °FOvercast.17 mph82%29.92 "HgN/A
9:55 PM55 °FMostly cloudy.21 mph82%29.89 "HgN/A
9:25 PM55 °FDrizzle. Mostly cloudy.23 mph82%29.89 "HgN/A
8:55 PM55 °FDrizzle. Mostly cloudy.22 mph82%29.86 "HgN/A
8:25 PM54 °FLight rain. Passing clouds.18 mph88%29.86 "HgN/A
7:59 PM54 °FLight rain. Partly cloudy.18 mph94%29.86 "Hg3 mi
7:55 PM54 °FLight rain. Mostly cloudy.21 mph94%29.86 "Hg3 mi
7:25 PM52 °FPartly cloudy.18 mph94%29.86 "Hg2 mi
6:55 PM52 °FLight rain. Partly cloudy.20 mph94%29.86 "Hg2 mi
6:25 PM52 °FRain. Partly cloudy.18 mph94%29.86 "Hg2 mi
5:59 PM52 °FRain. Mostly cloudy.18 mph94%29.86 "Hg2 mi
5:25 PM52 °FRain. Partly cloudy.20 mph88%29.86 "Hg2 mi
5:04 PM52 °FLight rain. Partly cloudy.16 mph88%29.86 "Hg3 mi
4:55 PM52 °FSprinkles. Mostly cloudy.17 mph88%29.86 "Hg4 mi
4:25 PM52 °FDrizzle. Broken clouds.18 mph88%29.86 "HgN/A
3:55 PM52 °FLight rain. Broken clouds.15 mph94%29.86 "HgN/A
3:25 PM52 °FLight rain. Partly sunny.15 mph88%29.89 "HgN/A
3:02 PM52 °FLight rain. Partly sunny.15 mph94%29.89 "Hg4 mi
2:25 PM52 °FDrizzle. Broken clouds.15 mph94%29.92 "HgN/A
1:55 PM52 °FLight rain. Broken clouds.15 mph94%29.92 "Hg5 mi
1:25 PM52 °FLight rain. Partly sunny.16 mph94%29.95 "Hg6 mi
12:55 PM52 °FDrizzle. Mostly cloudy.16 mph94%29.95 "HgN/A
12:25 PM50 °FLight rain. Broken clouds.9 mph94%29.98 "HgN/A
11:55 AM46 °FSprinkles. Mostly cloudy.5 mph100%29.98 "Hg5 mi
11:25 AM45 °FDrizzle. Broken clouds.5 mph100%30.01 "Hg5 mi
11:04 AM45 °FLight rain. More clouds than sun.8 mph93%30.04 "Hg4 mi
10:25 AM45 °FLight rain. Broken clouds.7 mph87%30.04 "HgN/A
9:55 AM45 °FSprinkles. Partly sunny.8 mph81%30.07 "HgN/A
9:25 AM45 °FDrizzle. Partly sunny.5 mph81%30.07 "HgN/A
8:55 AM46 °FDrizzle. Broken clouds.5 mph71%30.07 "HgN/A
8:25 AM45 °FPartly sunny.5 mph76%30.07 "HgN/A
7:55 AM45 °FOvercast.5 mph76%30.07 "HgN/A
7:25 AM46 °FOvercast.6 mph66%30.07 "HgN/A
6:55 AM46 °FOvercast.7 mph66%30.07 "HgN/A
6:25 AM46 °FOvercast.10 mph66%30.04 "HgN/A
5:55 AM46 °FMostly cloudy.13 mph66%30.04 "HgN/A
5:25 AM46 °FMostly cloudy.15 mph66%30.01 "HgN/A
Weather by CustomWeather, © 2015

See weather overviewHow to use our weather pages